Preview of NWS' New Version of Forecast
This preview is not operational and should not be used for support decisions.

Regional Weather Roundup (RWR)

Issued by National Weather Service (NWS)

                            
000
ASCA42 TJSJ 221310
RWRPR 
PUERTO RICO/U.S. VIRGIN ISLANDS HOURLY WEATHER ROUNDUP
NATIONAL WEATHER SERVICE SAN JUAN PR
900 AM AST WED MAY 22 2019

PRZ001>002-007>008-010-221400-
PUERTO RICO
  
CITY           SKY/WX    TMP DP  RH WIND       PRES   REMARKS
SAN JUAN LMM   PTSUNNY   84  73  70 E9        29.99R HX  91           
AGUADILLA      SUNNY     81  72  74 E6        30.00R                  
CEIBA          SUNNY     86  73  66 SE10      30.01R HX  93           
$$

VIZ001>002-221400-
U.S. VIRGIN ISLANDS
  
CITY           SKY/WX    TMP DP  RH WIND       PRES   REMARKS
CHARLOTTE AMA  SUNNY     82  72  69 E15       29.99S                  
CHRISTIANSTED  MOSUNNY   82  72  69 E15       30.01R                  
$$

HOURLY WEATHER ROUNDUP FOR THE NEWS MEDIA
  
CITY           SKY/WX    TMP DP  RH WIND       PRES   REMARKS
ORLANDO        FAIR      79  66  64 SE8       30.08R                  
NEW YORK       FAIR      65  38  36 N12G18    30.23R                  
NEWARK         FAIR      65  39  38 NW9       30.23R                  
CHICAGO        CLOUDY    55  53  93 S6        29.86R                  
HARTFORD       FAIR      58  39  49 N10G17    30.14R                  
BOSTON         FAIR      61  33  35 N14G22    30.15R                  
DALLAS         CLOUDY    73  70  90 S8        29.75R FOG              
PHILADELPHIA   FAIR      65  39  38 VRB3      30.27R                  
LOS ANGELES    MOCLDY    56  47  71 W6        29.70F                  
WASHINGTON DC  PTSUNNY   62  44  51 CALM      30.29R